845  
ASUS43 KDTX 181110  
RWRMI  
MICHIGAN HOURLY REGIONAL WEATHER ROUNDUP  
NATIONAL WEATHER SERVICE DETROIT/PONTIAC MI  
700 AM EDT THU JUL 18 2019  
 
NOTE: "FAIR" INDICATES FEW OR NO CLOUDS BELOW 12,000 FEET WITH NO  
SIGNIFICANT WEATHER AND/OR TO VISIBILITY
.  
 
MIZ047>049-052>055-059>063-066>070-074>076-081>083-181200-  
SOUTHEAST LOWER MICHIGAN  
 
CITY SKY/WX TMP DP RH WIND PRES REMARKS
 
ADRIAN FAIR 69 66 90 NE3 29.95R  
ALMA FAIR 67 64 90 CALM 29.92F  
ANN ARBOR FAIR 65 64 97 CALM 29.94R FOG  
BAD AXE FAIR 61 59 94 CALM 29.94S  
CARO FAIR 65 62 89 CALM 29.93S  
DETROIT CITY FAIR 67 62 84 CALM 29.94R  
DETROIT MOCLDY 69 63 81 CALM 29.94S  
FLINT FAIR 66 62 87 S3 29.93S  
GROSSE ILE FAIR 68 65 89 CALM 29.93S  
HILLSDALE MOCLDY 70 67 91 SE6 29.95S  
HOWELL FAIR 67 63 85 SE5 29.95S  
 
CITY SKY/WX TMP DP RH WIND PRES REMARKS
 
JACKSON FAIR 71 67 87 SE3 29.95R  
LAMBERTVILLE FAIR 68 68 99 CALM 29.94R  
LANSING FAIR 72 64 76 SE6 29.93S  
LAPEER FAIR 62 62 99 CALM 29.95S  
MASON FAIR 70 66 89 S5 29.94S  
MONROE FAIR 67 66 98 CALM 29.94R  
MT. CLEMENS PTCLDY 66 63 88 CALM 29.94  
PONTIAC FAIR 67 63 87 CALM 29.94R  
PORT HOPE N/A 62 60 93 SW3 29.93R  
PORT HURON FAIR 61 57 88 CALM 29.95R FOG  
TRI CITIES FAIR 67 65 93 SE3 29.93S  
MIDLAND FAIR 65 64 96 CALM 29.92S  
TROY FAIR 68 61 78 CALM 29.96S  
SAGINAW HB FAIR 66 63 88 CALM 29.93S  

 
MIZ043>046-050>051-056>058-064>065-071>073-077>080-181200-  
SOUTHWEST LOWER MICHIGAN  
 
CITY SKY/WX TMP DP RH WIND PRES REMARKS
 
BATTLE CREEK FAIR 75 72 90 SE8 29.93S  
BENTON HARBOR MOCLDY 74 69 85 S5 29.89R  
BIG RAPIDS FAIR 65 63 93 CALM 29.91S  
COLDWATER FAIR 73 73 100 CALM 29.94R FOG  
FREMONT FAIR 70 66 88 SE3 29.89R  
HOLLAND FAIR 73 72 96 S7 29.89S  
GRAND RAPIDS MOCLDY 73 70 90 S8 29.91R  
IONIA FAIR 71 67 88 SE6 29.91S  
KALAMAZOO FAIR 75 71 87 S3 29.92S  
LUDINGTON FAIR 72 65 81 SE6 29.85R  
MARSHALL FAIR 72 72 100 SE3 29.93S  
MOUNT PLEASANT FAIR 65 65 100 CALM 29.91F  
MUSKEGON MOCLDY 75 70 84 SE7 29.87S  
SOUTH HAVEN FAIR 74 73 94 CALM 29.89S  

 
MIZ016>042-181200-  
NORTHERN LOWER MICHIGAN  
 
CITY SKY/WX TMP DP RH WIND PRES REMARKS
 
ALPENA FAIR 62 57 83 S3 29.91F  
BEAVER ISLAND FAIR 69 58 68 S9 29.83F  
BELLAIRE CLOUDY 74 62 65 S5 29.87S  
CADILLAC FAIR 70 65 85 SE5 29.90F  
CHARLEVOIX FAIR 72 58 62 SE8 29.87F  
FRANKFORT FAIR 75 63 66 SE8 29.84S  
GAYLORD FAIR 66 58 75 S9 29.92R  
GRAYLING FAIR 66 61 85 SE5 29.90F  
HARBOR SPRINGS MOCLDY 73 56 54 CALM 29.85F  
HOUGHTON LAKE FAIR 66 60 81 E5 29.93S  
MANISTEE FAIR 69 63 81 SE5 29.85S  
OSCODA FAIR 62 59 91 CALM 29.92F  
PELLSTON FAIR 68 58 70 SE6 29.86F  
ROGERS CITY MOCLDY 67 55 65 S6 29.91S  
TRAVERSE CITY CLOUDY 72 62 71 S3 29.84F  

 
MIZ007>008-015-181200-  
EASTERN UPPER MICHIGAN  
 
CITY SKY/WX TMP DP RH WIND PRES REMARKS
 
KINROSS CLOUDY 67 59 75 SE16 29.84F  
MACKINAC ISLAN CLOUDY 69 56 63 SE10G17 29.85F  
NEWBERRY FAIR 68 59 72 S12G18 29.81F  
S. S. MARIE FAIR 67 61 81 E8 29.84F  
MUNISING N/A 72 65 78 S10G21 29.75F  

 
MIZ004>006-011>014-085-181200-  
CENTRAL UPPER MICHIGAN  
 
CITY SKY/WX TMP DP RH WIND PRES REMARKS
 
MANISTIQUE CLOUDY 67 63 87 S6 29.81S  
ESCANABA MOCLDY 72 68 87 S10 29.78F  
MENOMINEE CLOUDY 72 69 90 S8 29.79F  
SAWYER-GWINN CLOUDY 68 64 88 S14G20 29.77F  

 
MIZ001>003-009>011-084-181200-  
WESTERN UPPER MICHIGAN  
 
CITY SKY/WX TMP DP RH WIND PRES REMARKS
 
IRON MOUNTAIN CLOUDY 67 64 90 SE5 29.77F  
HOUGHTON FAIR 69 61 75 SW8 29.70R  
COPPER HARBOR N/A 67 60 78 SW9 29.69R  
IRONWOOD FAIR 72 69 90 S8 29.73R  

 
 
ABBREVIATIONS USED IN REMARKS  
TC - TEMPERATURE IN CELSIUS  
WCI - WIND CHILL INDEX  
HX - HEAT INDEX  
VSB - VISIBILITY  
 
 
 
CLICK HERE TO GO TO PREVIOUS BULLETINS.

The Nexlab MI Page Main Text Page